Weather History for Calgary Springbank, AB

Change the Weather History Date:

Monday, April 22, 2013

  Actual Average Record
Temperature  
Mean Temperature 27 °F -  
Max Temperature 46 °F 53 °F 72 °F (2012)
Min Temperature 8 °F 31 °F 8 °F (2008)
Degree Days  
Heating Degree Days 38    
Moisture  
Dew Point 9 °F    
Average Humidity 42    
Maximum Humidity 92    
Minimum Humidity 10    
Precipitation  
Precipitation 0.00 in - - ()
Sea Level Pressure  
Sea Level Pressure 30.43 in    
Wind  
Wind Speed 6 mph ()    
Max Wind Speed 13 mph    
Max Gust Speed -    
Visibility 17.8 miles    
Events      
Averages and records for this station are not official NWS values.
T = Trace of Precipitation, MM = Missing Value Source: Averaged Metar Reports

Daily Weather History Graph

Daily Weather History Graph

Search for Another Location

Airport:

Trip Planner

Search our weather history database for the weather conditions in past years. The results will help you decide how hot, cold, wet, or windy it might be!

Date:

Astronomy

Apr. 22, 2013 Rise Set
Actual Time 6:27 AM MDT 8:45 PM MDT
Civil Twilight 5:51 AM MDT 9:21 PM MDT
Nautical Twilight 5:05 AM MDT 10:07 PM MDT
Astronomical Twilight 4:12 AM MDT 11:01 PM MDT
Moon 5:20 PM MDT (4/22) 4:46 AM MDT (4/22)
Length of Visible Light 15h 30m
Length of Day
14h 18m
Waxing Gibbous, 88% of the Moon is Illuminated
Apr 22
Waxing Gibbous
Apr 25
Full
May 2
Last Quarter
May 9
New
May 17
First Quarter

Hourly Weather History & Observations

Time (MDT) Temp. Windchill Dew Point Humidity Pressure Visibility Wind Dir Wind Speed Gust Speed Precip Events Conditions
5:00 AM 10.4 °F 4.0 °F 8.6 °F 92% 30.55 in 15.0 mi WNW 3.5 mph - N/A   Clear
6:00 AM 9 °F - 6 °F 81% 30.56 in 19 mi NW 5.8 mph - -   Clear
6:00 AM 8.6 °F -1.3 °F 6.8 °F 92% 30.56 in 20.0 mi NW 5.8 mph - N/A   Clear
7:00 AM 12.2 °F 2.9 °F 8.6 °F 85% 30.56 in 30.0 mi NNW 5.8 mph - N/A   Clear
9:00 AM 24.8 °F 15.3 °F 17.6 °F 74% 30.54 in 30.0 mi NNW 9.2 mph - N/A   Clear
10:00 AM 32.0 °F 25.6 °F 15.8 °F 51% 30.52 in 30.0 mi NW 6.9 mph - N/A   Clear
11:00 AM 35.6 °F 28.0 °F 6.8 °F 30% 30.50 in 30.0 mi NW 10.4 mph - N/A   Clear
12:00 PM 37.4 °F 32.1 °F 8.6 °F 30% 30.49 in 30.0 mi West 6.9 mph - N/A   Partly Cloudy
1:00 PM 41.0 °F 35.2 °F 8.6 °F 26% 30.47 in 30.0 mi NW 9.2 mph - N/A   Partly Cloudy
2:00 PM 41.0 °F 39.0 °F 6.8 °F 24% 30.45 in 30.0 mi West 3.5 mph - N/A   Clear
3:00 PM 44.6 °F 40.2 °F 8.6 °F 23% 30.44 in 30.0 mi NW 8.1 mph - N/A   Clear
4:00 PM 44.6 °F 40.7 °F 8.6 °F 23% 30.42 in 30.0 mi West 6.9 mph - N/A   Clear
4:08 PM 44.6 °F 40.2 °F 6.8 °F 21% 30.42 in 30.0 mi NW 8.1 mph - N/A   Clear
5:00 PM 46.4 °F 41.9 °F 10.4 °F 23% 30.39 in 30.0 mi NW 9.2 mph - N/A   Clear
6:00 PM 46 °F - 7 °F 10% 30.37 in 28 mi WNW 5.8 mph - -  
6:00 PM 46.4 °F 43.5 °F 6.8 °F 20% 30.36 in 30.0 mi West 5.8 mph - N/A   Clear
7:00 PM 46.4 °F 41.9 °F 6.8 °F 20% 30.34 in 30.0 mi WSW 9.2 mph - N/A   Clear
8:00 PM 41.0 °F 35.2 °F 10.4 °F 29% 30.33 in 30.0 mi WSW 9.2 mph - N/A   Clear
8:36 PM 35.6 °F 27.5 °F 10.4 °F 35% 30.34 in 30.0 mi WSW 11.5 mph - N/A   Clear
9:00 PM 30.2 °F 20.2 °F 12.2 °F 47% 30.33 in 20.0 mi West 12.7 mph - N/A   Clear
10:00 PM 30.2 °F 20.8 °F 12.2 °F 47% 30.18 in 15.0 mi West 11.5 mph - N/A   Clear